Roma, Italy

9:20 PM CEST on July 06, 2015 (GMT +0200)
Ciampino | | Change Station
CLOSE
Current Station
Personal Weather Station
Location: Ciampino, LAZIO
Elevation: 348 ft
Nearby Weather Stations
Active Advisory: Extreme high temperature

Elev 348 ft 41.81 °N, 12.60 °E | Updated 3 seconds ago

Clear
Clear
82.6 °F
Feels Like 87 °F
N
5.4
Wind Variable Wind from South
Gusts 6.9 mph

Today
High -- | Low -- °F
--% Chance of Precip.
Yesterday
High -- | Low -- °F
Precip. -- in
5:41 AM 8:47 PM
Waning Gibbous, 73% visible
Pressure 30.06 in
Visibility -9999.0 miles
Clouds
Heat Index 87 °F
Dew Point 71 °F
Humidity 69%
Rainfall 0.00 in
Snow Depth Not available.
UV 0.0 out of 12
Pollen Not available.
Air Quality Not available.
Flu Activity Not available.
METAR LIRE 061855Z 22003KT CAVOK 27/25 Q1018 RMK SCT SCT100 VIS MIN 9999 WIND THR31 22002KT BLU

More Conditions Fewer Conditions

Pressure 30.06 in
Visibility -9999.0 miles
Clouds
Heat Index 87 °F
Dew Point 71 °F
Humidity 69%
Rainfall 0.00 in
Snow Depth Not available.
UV 0.0 out of 12
Pollen Not available.
Air Quality Not available.
Flu Activity Not available.
METAR LIRE 061855Z 22003KT CAVOK 27/25 Q1018 RMK SCT SCT100 VIS MIN 9999 WIND THR31 22002KT BLU

More Conditions Fewer Conditions

10-Day Weather Forecast

×

Almanac

Astronomy

Jul. 06, 2015 Rise Set
Actual Time
Civil Twilight
Nautical Twilight
Astronomical Twilight
Moon
Length of Visible Light
Length of Day
Tomorrow will be .
, % of the Moon is Illuminated

Today's Extremes

Country Highs Country Lows

Community

WunderPhotos

Upload Photos

1,835,621 photos uploaded!

WunderBlogs® & News

Nearby

Air Quality

  Air Quality AQ Index Pollutant
Not available.

Snow Depth

Station Depth Elevation

Earthquake Activity

City Distance Mag. Time & Date
Minimum magnitude displayed is 2.5.

Coastal Water Temperatures

Place Temperature

Stations

Nearby Weather Stations

Station Location Temp. Windchill Dew Point Humidity Wind Precip. Elev Updated Type